Wind_Speed
8 9 11 13 15 16 17 20 21 23 24 27 28 31 34 35 38 42 37 32 33 34 34 36 36 39 40 40 40 42 43 38 34 33 26 25 33 40 42 38 48 28 25 22 24
10 13 15 17 18 19 21 23 24 26 28 30 31 33 34 37 40 42 34 33 29 29 29 31 33 34 37 39 40 41 41 38 37 38 35 32 38 42 47 42 21 28 22 24 25
14 15 16 18 20 21 23 25 26 28 29 31 32 33 34 38 39 32 28 26 24 23 24 26 28 30 31 35 37 39 39 42 42 43 41 38 38 43 44 46 42 35 35 37 23
13 15 17 19 20 22 24 26 27 29 30 31 32 34 35 37 33 26 23 21 20 20 22 22 25 28 29 30 32 35 38 41 43 45 48 46 42 43 44 45 42 33 31 33 31
14 16 19 21 22 23 25 26 27 28 30 30 32 34 35 34 27 22 18 16 16 16 17 19 22 24 27 30 31 32 33 37 40 43 44 47 50 46 43 45 43 38 51 25 26
17 19 22 23 24 24 24 25 27 28 29 29 30 32 33 33 28 20 18 19 20 21 19 17 19 22 24 26 29 31 33 35 36 39 42 44 46 49 44 49 46 41 34 32 30
20 20 22 24 24 24 24 25 26 27 27 27 28 30 31 31 28 21 19 22 23 21 21 20 21 23 25 25 25 27 29 34 36 38 40 42 45 43 47 47 47 43 44 43 35
21 23 26 27 24 23 24 25 26 26 26 25 24 27 29 29 26 21 20 20 22 25 24 19 17 20 21 22 24 27 29 32 34 39 40 47 43 40 43 45 47 46 43 44 38
23 24 23 22 21 22 23 24 25 25 24 24 25 26 26 27 26 21 19 21 22 22 20 19 23 24 24 25 27 31 31 32 34 39 45 48 47 45 44 45 46 49 45 45 44
22 21 20 19 21 24 25 26 26 23 22 22 24 26 26 28 29 26 25 24 24 25 25 22 23 21 24 29 34 37 40 41 41 41 46 45 50 48 47 47 47 43 48 49 47
20 18 19 21 24 28 28 26 27 26 21 22 22 24 26 26 28 28 24 22 22 23 25 26 28 30 31 32 33 35 36 37 38 41 46 48 48 48 47 48 47 46 48 50 49
21 19 21 26 28 28 28 25 21 18 20 18 20 21 24 24 26 27 28 24 26 27 26 26 29 32 31 30 30 31 32 33 31 34 42 44 48 45 44 44 47 46 45 47 45
21 18 22 27 27 26 26 24 20 16 15 17 18 21 21 23 26 25 25 27 29 26 22 28 31 28 23 24 24 22 28 29 33 34 37 39 45 46 42 43 42 46 44 47 47
22 17 22 24 26 25 26 25 22 17 14 13 16 17 19 20 20 25 23 21 23 26 29 34 33 23 20 21 21 22 25 25 24 28 27 29 39 39 38 40 41 39 46 47 44
20 18 23 25 26 23 24 25 24 21 19 14 17 19 23 20 22 25 26 24 24 27 31 31 28 19 23 26 29 29 27 27 28 21 21 17 30 29 35 36 38 37 45 46 45
18 17 23 25 27 27 24 26 26 23 18 16 18 18 20 23 23 25 29 27 27 26 27 27 29 23 24 26 32 31 30 31 31 25 11 9 18 19 28 28 32 34 43 46 43
20 17 21 24 24 26 24 24 27 23 24 20 18 20 20 20 23 23 25 27 26 27 29 28 28 22 20 22 32 31 37 40 33 15 11 1 8 14 24 30 30 27 36 43 36
21 19 19 23 24 26 28 28 27 26 23 23 21 20 20 18 19 20 21 25 24 26 26 31 32 22 23 30 34 35 41 44 25 27 19 11 13 16 26 22 25 26 35 37 35
21 21 21 23 24 26 28 27 28 27 23 21 21 19 21 22 23 20 20 24 25 25 27 28 27 25 24 26 29 28 36 37 23 20 26 28 28 15 17 18 17 26 35 37 28
22 21 22 23 24 27 29 29 29 27 27 24 18 17 17 16 18 18 17 19 22 23 25 26 23 23 23 28 22 27 19 33 20 14 19 24 23 24 20 13 16 17 24 25 27
26 24 23 25 25 27 29 30 31 28 25 25 22 15 17 16 16 17 17 17 17 19 21 21 24 25 24 23 24 18 21 27 25 17 12 16 20 18 18 11 8 12 8 10 15
28 26 25 27 28 28 28 30 34 27 22 23 26 20 17 17 14 16 15 16 17 18 18 20 20 23 25 23 24 19 18 17 20 21 14 13 13 13 13 11 9 3 2 2 8
30 27 26 27 28 31 33 32 30 23 25 25 24 22 20 19 15 15 16 13 14 16 16 17 17 16 17 18 20 18 14 16 14 18 15 13 13 6 8 9 6 4 1 2 5
31 27 25 30 33 31 33 36 33 27 27 28 27 25 22 19 19 13 14 15 14 14 14 16 17 18 18 18 20 18 17 12 12 12 12 12 14 4 4 1 1 2 4 7 5
32 29 26 29 31 33 36 37 37 35 28 27 25 24 24 23 19 17 14 13 16 13 13 13 15 15 15 15 14 12 13 13 13 12 11 8 7 5 4 3 4 4 5 8 10
41 36 33 34 31 30 37 37 39 36 34 31 26 23 25 24 19 17 16 15 13 16 13 14 13 12 12 11 10 10 8 10 11 11 9 9 7 5 5 4 3 4 4 5 7
42 38 39 37 33 34 34 39 40 35 32 28 25 25 24 22 18 15 16 17 14 16 15 14 13 13 11 10 9 6 6 6 7 7 8 7 6 7 5 3 4 5 6 7 9
Wind_Direction
9 358 350 348 344 338 336 331 329 329 329 326 325 325 323 324 323 319 312 300 279 271 266 261 257 253 251 248 248 248 247 248 249 249 240 227 239 240 238 234 243 236 229 214 237
0 348 343 338 338 335 333 331 331 330 330 327 326 327 327 323 322 316 308 307 289 275 266 258 255 255 251 249 247 248 250 251 246 246 241 229 236 238 240 241 249 245 252 240 215
345 349 347 345 343 340 337 334 332 330 331 331 330 331 332 327 326 317 307 308 299 286 274 261 258 254 251 250 251 249 245 246 246 247 245 239 234 246 248 243 255 258 237 234 240
354 350 346 342 340 340 339 338 335 333 333 333 331 334 334 330 329 322 317 307 305 296 283 271 262 258 255 253 252 250 248 246 244 242 241 247 239 239 248 254 254 255 236 227 235
347 344 341 335 334 335 334 334 333 333 332 330 331 335 336 338 331 325 329 327 321 309 293 281 272 264 259 256 254 253 250 249 247 246 244 240 245 248 245 253 256 257 251 232 227
340 338 334 330 329 330 335 333 331 334 333 329 333 337 340 342 336 319 314 318 322 315 306 298 288 277 267 262 259 253 253 251 251 249 244 244 243 242 244 248 250 252 248 240 242
340 336 330 328 322 320 324 330 333 333 331 331 337 339 342 344 341 328 323 316 321 321 314 306 299 289 280 275 267 263 259 258 255 252 249 249 238 240 237 244 248 243 241 248 241
341 337 330 324 325 320 319 324 329 329 331 333 339 342 345 347 345 333 329 325 324 325 315 304 304 297 286 275 272 270 269 262 257 258 251 250 236 237 242 242 243 245 242 245 244
337 335 334 340 337 330 326 326 324 327 330 333 339 345 345 350 352 344 336 330 328 329 318 304 305 298 290 279 272 271 270 268 261 258 254 250 238 233 239 240 239 243 240 241 244
335 335 341 349 342 341 336 333 329 326 329 334 341 342 348 353 354 350 344 337 327 330 326 311 303 292 281 282 277 274 269 267 265 258 259 256 250 244 237 237 237 237 240 237 239
332 335 339 342 340 340 341 335 331 329 335 333 336 340 349 354 355 353 337 330 339 333 332 327 324 320 313 304 296 290 285 280 269 260 255 253 247 246 241 239 237 236 237 239 235
338 335 336 336 335 340 337 336 333 325 330 332 334 341 347 350 355 351 347 342 347 349 343 344 331 320 313 311 306 303 297 287 278 269 258 250 248 246 249 238 235 236 233 237 237
336 334 338 336 336 336 339 339 336 331 332 331 333 337 344 353 352 349 351 351 348 345 341 341 336 331 332 333 327 318 308 297 287 279 269 259 248 245 245 245 231 230 230 232 234
332 335 338 341 343 341 343 344 341 336 337 335 331 335 343 350 350 350 358 356 345 347 352 354 355 352 358 359 354 348 333 327 309 298 283 264 251 237 238 242 238 226 228 230 232
331 329 338 341 351 348 348 351 344 337 338 332 334 342 345 348 351 356 358 3 2 360 356 3 3 10 17 5 357 343 335 309 314 311 296 263 258 223 226 229 234 225 221 228 229
324 326 335 344 351 355 350 354 351 340 340 336 338 338 339 344 350 354 357 1 1 8 359 4 8 11 18 12 16 14 9 358 355 344 326 230 237 202 215 221 225 229 218 224 231
312 318 327 337 344 354 351 352 353 348 337 336 335 336 342 341 342 354 355 3 0 2 1 359 10 0 11 17 15 14 13 8 4 4 346 5 259 187 196 214 214 215 209 214 225
304 307 319 331 337 345 352 354 355 352 342 335 331 333 339 340 338 348 0 357 359 359 2 0 13 19 2 25 20 19 25 19 28 37 43 18 85 172 206 210 189 169 193 202 218
295 299 310 319 329 335 339 350 351 350 345 339 324 332 332 338 342 349 358 354 358 360 1 4 9 10 357 28 22 33 35 38 65 66 62 64 67 76 209 198 182 186 194 193 203
287 288 301 309 317 324 337 341 345 341 345 339 332 319 326 326 328 338 350 348 357 354 358 355 2 8 1 16 34 38 38 33 26 36 45 68 77 72 156 195 213 175 189 196 200
282 283 290 302 309 314 323 334 332 335 339 340 330 318 320 321 325 330 341 341 351 351 351 355 352 4 2 11 30 34 44 41 32 28 39 70 78 74 71 97 165 150 173 186 169
275 278 283 289 295 304 311 320 329 335 338 340 333 320 309 313 317 323 328 335 340 346 349 350 358 355 7 14 24 32 24 37 39 35 29 26 73 85 79 54 54 15 34 150 182
271 275 281 288 291 297 305 311 324 328 340 335 331 323 306 306 313 312 318 334 328 333 346 342 351 4 7 16 15 28 25 22 33 39 34 31 13 47 83 95 102 118 251 225 189
265 270 275 279 284 294 300 307 316 322 331 333 331 324 320 295 302 303 310 315 321 327 336 341 345 349 358 2 14 14 30 24 14 24 41 34 29 36 351 355 22 172 205 232 259
264 268 271 273 279 286 293 303 308 312 322 327 330 323 318 304 290 291 297 306 311 321 324 335 337 340 348 351 0 3 17 32 23 24 41 45 48 48 65 270 285 279 271 260 259
267 266 266 268 277 280 286 290 298 304 310 326 323 323 317 314 286 278 292 297 297 306 314 318 329 332 336 335 345 345 360 23 27 18 28 19 14 33 23 17 353 325 308 298 291
255 255 257 264 274 278 280 284 295 300 307 316 320 318 313 315 284 273 284 286 292 297 304 304 315 321 324 329 321 328 346 4 9 2 8 9 8 353 3 346 327 318 306 298 293
Height
5865 5865 5863 5862 5860 5858 5856 5854 5851 5848 5845 5843 5839 5836 5831 5827 5823 5818 5813 5810 5808 5806 5806 5806 5806 5808 5810 5812 5813 5816 5818 5827 5831 5834 5841 5840 5838 5833 5836 5839 5839 5839 5840 5850 5856
5865 5864 5862 5861 5858 5856 5853 5851 5847 5844 5841 5838 5835 5831 5827 5822 5817 5812 5807 5802 5799 5797 5796 5797 5797 5799 5801 5802 5805 5807 5813 5818 5823 5825 5826 5831 5827 5829 5831 5832 5830 5832 5835 5839 5843
5864 5861 5860 5858 5855 5853 5850 5847 5844 5840 5837 5834 5830 5826 5822 5817 5811 5804 5800 5796 5793 5790 5790 5789 5790 5792 5793 5795 5797 5801 5807 5808 5811 5814 5816 5820 5822 5820 5823 5825 5827 5831 5836 5839 5837
5862 5860 5858 5856 5853 5851 5848 5844 5841 5837 5834 5830 5826 5822 5817 5811 5806 5799 5795 5792 5789 5786 5785 5784 5784 5786 5787 5788 5789 5793 5795 5797 5799 5803 5807 5811 5813 5816 5816 5818 5823 5828 5824 5828 5831
5861 5859 5856 5854 5851 5848 5845 5841 5838 5835 5832 5828 5823 5819 5813 5808 5801 5796 5792 5788 5786 5783 5781 5780 5779 5780 5781 5781 5782 5784 5786 5787 5789 5793 5798 5800 5804 5809 5814 5810 5810 5817 5816 5810 5823
5859 5857 5854 5851 5849 5846 5843 5839 5836 5832 5829 5824 5820 5814 5810 5805 5797 5793 5790 5786 5783 5781 5778 5777 5775 5774 5774 5774 5774 5775 5777 5780 5781 5784 5787 5789 5793 5798 5809 5802 5804 5806 5812 5815 5820
5856 5854 5852 5849 5846 5843 5840 5837 5833 5829 5825 5821 5817 5811 5806 5801 5794 5790 5786 5783 5780 5777 5774 5773 5771 5770 5769 5767 5766 5767 5769 5770 5773 5774 5776 5774 5781 5794 5793 5792 5794 5802 5805 5808 5813
5855 5853 5850 5847 5843 5840 5837 5834 5830 5825 5822 5818 5814 5809 5803 5798 5792 5787 5783 5781 5777 5773 5770 5768 5766 5764 5762 5761 5759 5759 5760 5761 5761 5762 5765 5760 5777 5781 5778 5781 5786 5790 5798 5799 5805
5853 5850 5846 5843 5840 5837 5834 5830 5827 5822 5818 5814 5811 5807 5802 5796 5790 5785 5781 5778 5774 5771 5767 5765 5762 5759 5756 5754 5753 5750 5750 5750 5753 5753 5749 5747 5762 5766 5766 5770 5778 5780 5789 5793 5796
5850 5847 5844 5841 5838 5835 5831 5827 5823 5820 5816 5812 5807 5805 5800 5793 5787 5783 5778 5775 5770 5766 5763 5760 5757 5754 5750 5747 5744 5742 5740 5740 5740 5744 5737 5739 5745 5753 5756 5759 5766 5772 5776 5786 5790
5847 5844 5841 5838 5835 5832 5828 5824 5820 5814 5812 5809 5806 5801 5796 5791 5786 5781 5777 5772 5768 5763 5758 5753 5749 5743 5740 5737 5733 5729 5727 5725 5726 5726 5720 5725 5730 5735 5745 5750 5756 5762 5768 5775 5788
5844 5841 5838 5835 5832 5828 5824 5820 5817 5814 5809 5807 5803 5799 5794 5790 5784 5779 5774 5770 5764 5760 5754 5750 5745 5740 5734 5729 5725 5721 5718 5715 5715 5712 5706 5711 5714 5723 5728 5738 5746 5752 5760 5765 5775
5842 5839 5836 5832 5829 5825 5821 5817 5813 5811 5808 5805 5801 5797 5794 5789 5782 5779 5773 5767 5762 5758 5753 5748 5741 5734 5727 5724 5720 5716 5709 5705 5703 5699 5696 5698 5700 5709 5718 5723 5734 5742 5751 5756 5763
5839 5836 5834 5831 5827 5822 5818 5814 5810 5807 5805 5803 5799 5797 5792 5787 5783 5777 5772 5769 5763 5755 5748 5742 5735 5728 5725 5721 5716 5712 5706 5698 5693 5688 5686 5684 5686 5696 5706 5713 5723 5735 5742 5748 5756
5837 5835 5832 5829 5826 5820 5817 5812 5808 5805 5802 5800 5796 5792 5788 5786 5781 5775 5771 5766 5761 5753 5748 5744 5735 5728 5722 5718 5712 5707 5700 5693 5687 5680 5676 5677 5675 5690 5694 5702 5710 5722 5731 5740 5747
5834 5832 5829 5827 5822 5819 5814 5809 5806 5803 5800 5797 5793 5790 5787 5783 5778 5773 5767 5764 5759 5754 5749 5742 5735 5728 5722 5716 5710 5704 5698 5691 5683 5676 5672 5668 5669 5680 5687 5696 5704 5713 5724 5731 5740
5830 5829 5826 5824 5821 5817 5813 5809 5805 5799 5796 5795 5792 5788 5785 5782 5778 5773 5767 5763 5758 5753 5747 5742 5736 5727 5724 5718 5712 5705 5698 5688 5684 5676 5672 5669 5670 5677 5684 5690 5695 5705 5717 5727 5735
5825 5825 5823 5821 5818 5815 5812 5808 5802 5798 5794 5791 5789 5785 5784 5781 5778 5773 5768 5762 5757 5753 5748 5739 5735 5729 5723 5716 5711 5706 5698 5690 5686 5680 5676 5676 5676 5679 5682 5689 5694 5703 5710 5721 5731
5821 5819 5819 5817 5814 5812 5810 5807 5801 5796 5793 5790 5785 5783 5780 5777 5774 5771 5767 5761 5757 5752 5748 5741 5738 5733 5726 5720 5715 5709 5704 5701 5694 5689 5687 5684 5683 5684 5686 5690 5694 5701 5705 5718 5725
5816 5814 5814 5813 5811 5809 5807 5803 5800 5795 5790 5785 5783 5781 5778 5775 5772 5770 5767 5762 5757 5752 5747 5743 5740 5734 5728 5723 5718 5713 5711 5706 5701 5698 5692 5693 5690 5689 5692 5694 5695 5705 5709 5717 5725
5809 5809 5808 5809 5807 5806 5803 5801 5797 5794 5789 5784 5779 5777 5775 5772 5769 5766 5765 5762 5758 5752 5748 5744 5739 5736 5730 5725 5720 5718 5714 5711 5707 5705 5702 5702 5698 5696 5700 5701 5702 5701 5705 5709 5717
5802 5803 5803 5803 5802 5801 5799 5798 5794 5790 5786 5782 5778 5773 5771 5769 5766 5763 5761 5758 5756 5752 5748 5744 5741 5735 5731 5727 5723 5718 5717 5715 5713 5711 5707 5706 5708 5705 5705 5706 5708 5709 5712 5717 5722
5794 5796 5796 5797 5796 5794 5794 5794 5792 5787 5784 5780 5775 5772 5767 5766 5765 5760 5758 5756 5754 5752 5748 5744 5741 5738 5735 5731 5727 5723 5720 5717 5717 5715 5713 5712 5712 5711 5712 5714 5715 5716 5718 5720 5723
5785 5788 5790 5789 5789 5789 5787 5785 5786 5785 5780 5776 5773 5769 5766 5762 5759 5759 5756 5754 5751 5749 5747 5743 5739 5737 5735 5730 5726 5724 5722 5721 5719 5718 5717 5716 5715 5716 5716 5717 5719 5721 5722 5724 5725
5777 5780 5782 5781 5781 5782 5781 5779 5778 5778 5776 5772 5769 5765 5762 5759 5755 5753 5752 5750 5748 5747 5745 5743 5739 5737 5734 5732 5729 5727 5724 5723 5722 5720 5720 5719 5718 5718 5718 5719 5720 5721 5723 5724 5726
5768 5771 5772 5772 5774 5776 5776 5775 5773 5771 5770 5767 5764 5759 5757 5752 5751 5750 5748 5746 5745 5743 5742 5740 5739 5736 5734 5732 5730 5728 5726 5724 5723 5722 5722 5720 5719 5720 5719 5720 5720 5721 5721 5722 5723
5757 5760 5761 5765 5765 5766 5767 5766 5765 5765 5763 5761 5760 5756 5751 5747 5744 5745 5745 5743 5742 5740 5739 5737 5736 5734 5733 5732 5730 5729 5726 5725 5723 5723 5722 5721 5721 5720 5720 5719 5720 5720 5720 5720 5720